Location: Wanzleben
(52.0609°N, 11.4408°E)
Time: 11:18:34
(UTC+00:00)

Cosmos 2369 Rocket - Pass Details

Date: 18 September 2020
Orbit: 827 x 854 km, 71.0° (Epoch: 25 October)

Event Time Altitude Azimuth Distance (km) Brightness Sun altitude
Exits shadow 22:59:32 23° 46° (NE) 1,713 4.1 -36.5°
Drops below altitude 10° 23:01:41 10° 37° (NE) 2,470 5.1 -36.5°
Sets 23:04:12 0° 33° (NNE) 3,414 6.0 -36.5°
